CW6617 Weather Reports


Display with metric or nautical units.
time (UTC)temp
F
wind
direction
speed
MPH
gust
MPH
rain 1hr
in
rain 24hr
in
rain mn
in
humidity
%
barometer
mb
20260505031704 50 51 0.0 1.0 0.00 0.00 0.00 90 1013.4
20260505030704 51 51 0.0 2.0 0.00 0.00 0.00 90 1013.4
20260505030203 51 51 0.0 1.0 0.00 0.00 0.00 90 1013.3
20260505024704 51 51 1.0 2.0 0.00 0.00 0.00 90 1013.3
20260505024204 51 51 1.0 2.0 0.00 0.00 0.00 90 1013.4
20260505023703 51 52 1.0 5.0 0.00 0.00 0.00 90 1013.4
20260505023203 51 314 0.0 3.0 0.00 0.00 0.00 89 1013.4
20260505021704 52 309 1.0 3.0 0.00 0.00 0.00 90 1013.4
20260505021203 52 307 2.0 3.0 0.00 0.00 0.00 90 1013.4
20260505020703 52 19 1.0 5.0 0.00 0.00 0.00 90 1013.5
20260505020204 52 57 1.0 3.0 0.00 0.00 0.00 90 1013.6
20260505014704 52 332 2.0 3.0 0.00 0.00 0.00 89 1013.5
20260505013704 52 46 0.0 2.0 0.00 0.00 0.00 89 1013.9
20260505013203 52 45 1.0 5.0 0.00 0.00 0.00 89 1013.7
20260505011704 52 21 2.0 5.0 0.00 0.00 0.00 88 1013.9
20260505011204 52 338 1.0 2.0 0.00 0.00 0.00 88 1014.0
20260505010704 53 326 0.0 2.0 0.00 0.00 0.00 88 1013.9
20260505010204 53 326 1.0 3.0 0.00 0.00 0.00 88 1014.0
20260505004203 53 342 1.0 2.0 0.00 0.00 0.00 88 1013.9
20260505003704 53 344 1.0 3.0 0.00 0.00 0.00 88 1013.8
20260505003203 53 48 1.0 5.0 0.00 0.00 0.00 88 1014.0
20260505001203 53 60 3.0 6.0 0.00 0.00 0.00 87 1014.1
20260505000703 53 50 3.0 6.0 0.00 0.00 0.00 87 1014.2
20260505000204 53 47 2.0 7.0 0.00 0.00 0.00 87 1014.3
20260504234704 53 30 1.0 5.0 0.00 0.00 0.00 87 1014.3
20260504234204 53 58 2.0 6.0 0.00 0.00 0.00 87 1014.4
20260504233704 53 39 2.0 7.0 0.00 0.00 0.00 87 1014.5
20260504233204 53 69 4.0 7.0 0.00 0.00 0.00 87 1014.5
20260504231703 53 70 2.0 7.0 0.00 0.00 0.00 87 1014.5
20260504231204 53 52 1.0 5.0 0.00 0.00 0.00 87 1014.6
20260504230703 53 57 2.0 7.0 0.00 0.00 0.00 87 1014.6
20260504230204 54 60 2.0 7.0 0.00 0.00 0.00 87 1014.5
20260504224704 54 6 3.0 6.0 0.00 0.00 0.00 87 1014.6
20260504224204 54 68 2.0 5.0 0.00 0.00 0.00 86 1014.6
20260504223704 54 52 0.0 3.0 0.00 0.00 0.00 86 1014.7
20260504221704 55 16 2.0 6.0 0.00 0.00 0.00 85 1014.5
20260504221204 55 351 2.0 5.0 0.00 0.00 0.00 85 1014.6
20260504220704 55 5 1.0 8.0 0.00 0.00 0.00 85 1014.6
20260504214704 55 34 3.0 6.0 0.00 0.00 0.00 84 1014.7
20260504214204 55 2 1.0 5.0 0.00 0.00 0.00 84 1014.7
20260504213203 56 351 3.0 8.0 0.00 0.00 0.00 84 1014.8
20260504211204 56 45 1.0 6.0 0.00 0.00 0.00 84 1014.9
20260504210705 56 10 1.0 6.0 0.00 0.00 0.00 84 1014.8
20260504204703 56 20 3.0 12.0 0.00 0.00 0.00 84 1014.9
20260504204204 56 10 2.0 6.0 0.00 0.00 0.00 84 1014.8
20260504203704 56 22 3.0 8.0 0.00 0.00 0.00 84 1014.7
20260504203204 56 32 2.0 5.0 0.00 0.00 0.00 84 1014.6
20260504201704 57 58 3.0 7.0 0.00 0.00 0.00 83 1014.6
20260504201203 57 48 4.0 8.0 0.00 0.00 0.00 84 1014.6
20260504200204 57 28 2.0 6.0 0.00 0.00 0.00 83 1014.5
20260504194704 57 42 3.0 6.0 0.00 0.00 0.00 83 1014.3
20260504193704 57 55 1.0 2.0 0.00 0.00 0.00 83 1014.1
20260504193204 57 55 1.0 6.0 0.00 0.00 0.00 83 1014.1
20260504191204 58 55 1.0 5.0 0.00 0.00 0.00 83 1014.0
20260504190204 58 34 1.0 6.0 0.00 0.00 0.00 83 1014.0
20260504184703 58 49 2.0 5.0 0.00 0.00 0.00 83 1014.1
20260504184204 58 59 1.0 6.0 0.00 0.00 0.00 82 1014.0
20260504183703 58 56 3.0 6.0 0.00 0.00 0.00 82 1014.0
20260504183204 58 55 2.0 7.0 0.00 0.00 0.00 82 1014.0
20260504181704 58 50 3.0 6.0 0.00 0.00 0.00 81 1014.0
20260504181204 58 48 3.0 6.0 0.00 0.00 0.00 81 1013.8
20260504180703 58 58 3.0 6.0 0.00 0.00 0.00 81 1013.7
20260504180203 59 49 3.0 10.0 0.00 0.00 0.00 81 1013.7
20260504174704 59 94 2.0 9.0 0.00 0.00 0.00 80 1013.6
20260504173704 59 47 1.0 6.0 0.00 0.00 0.00 80 1013.5
20260504173204 59 30 4.0 13.0 0.00 0.00 0.00 79 1013.5
20260504171704 60 48 2.0 8.0 0.00 0.00 0.00 78 1013.5
20260504171204 60 52 4.0 9.0 0.00 0.00 0.00 78 1013.5
20260504170703 60 36 4.0 13.0 0.00 0.00 0.00 78 1013.6
20260504170204 61 46 6.0 13.0 0.00 0.00 0.00 77 1013.6
20260504160204 60 9 3.0 13.0 0.00 0.00 0.00 80 1013.9
20260504150203 61 66 5.0 12.0 0.00 0.00 0.00 78 1014.0
20260504141204 64 39 7.0 10.0 0.00 0.00 0.00 72 1014.1
20260504140704 62 55 3.0 8.0 0.00 0.00 0.00 74 1014.2
20260504130704 60 142 1.0 3.0 0.00 0.00 0.00 80 1014.3
20260504130204 60 85 2.0 9.0 0.00 0.00 0.00 80 1014.3
20260504120203 59 54 2.0 7.0 0.00 0.00 0.00 83 1014.4
20260504110704 58 42 2.0 6.0 0.00 0.00 0.00 85 1014.5
20260504110205 58 39 2.0 7.0 0.00 0.00 0.00 86 1014.5
20260504081703 55 341 2.0 6.0 0.00 0.00 0.00 91 1013.7
20260504081204 55 52 4.0 9.0 0.00 0.00 0.00 91 1013.7
20260504080704 55 357 3.0 10.0 0.00 0.00 0.00 91 1013.7
20260504080204 55 45 3.0 10.0 0.00 0.00 0.00 91 1013.7
20260504070204 55 96 2.0 5.0 0.00 0.00 0.00 92 1013.1
20260504060204 54 175 1.0 2.0 0.00 0.00 0.00 93 1012.6
20260504050704 54 175 0.0 0.0 0.00 0.00 0.00 93 1012.2
20260504044704 54 175 0.0 0.0 0.00 0.00 0.00 93 1012.0
20260504044204 54 175 0.0 0.0 0.00 0.00 0.00 93 1012.0
20260504043703 54 175 0.0 0.0 0.00 0.00 0.00 93 1012.0
20260504043204 54 175 0.0 0.0 0.00 0.00 0.00 93 1012.0
20260504041704 54 175 0.0 0.0 0.00 0.00 0.00 93 1012.1
20260504041204 54 175 0.0 0.0 0.00 0.00 0.00 93 1012.1
20260504040703 54 175 0.0 0.0 0.00 0.00 0.00 93 1012.0
20260504034203 54 175 0.0 0.0 0.00 0.00 0.00 93 1012.0
20260504033704 54 175 0.0 0.0 0.00 0.00 0.00 93 1012.0
20260504033204 54 175 0.0 1.0 0.00 0.00 0.00 93 1012.0